Terminal Aerodrome Forecast
Issued by NWS

Home | Current Version | Previous Version | Text Only | Print | Product List | Glossary On
Versions: 1 2 3 4 5 6 7 8 9 10 11 12 13 14 15 16 17 18 19 20 21 22 23 24 25 26 27 28 29 30 31 32 33 34 35 36 37 38 39 40 41 42 43 44
000
FTUS43 KGLD 192338
TAFMCK
TAF
KMCK 192338Z 2000/2024 20012KT P6SM SCT080
     FM200700 VRB06KT P6SM SCT120
     FM201200 03009KT P6SM SCT030
     FM202000 07007KT P6SM SKC=

USA.gov is the U.S. government's official web portal to all federal, state and local government web resources and services.